Wind_Speed
16 19 22 24 23 24 24 23 22 21 21 21 22 21 19 19 20 21 21 22 21 19 17 18 19 20 21 20 19 18 18 18 18 18 18 18 17 16 15 14 14 13 12 11 10 10 10 10 11 11 11 11 11 11 10 10 9 9 9 10 10 10 10
12 15 19 22 23 24 24 23 22 21 22 23 23 21 20 20 21 22 22 22 22 21 19 18 19 20 20 20 20 19 19 19 19 19 18 18 19 18 16 14 14 14 14 12 11 11 11 11 11 12 12 11 11 12 12 11 11 11 10 11 11 11 11
10 12 14 18 20 22 23 22 22 22 22 23 22 21 21 22 23 23 23 23 22 22 21 20 19 19 19 20 20 19 19 19 19 19 18 18 18 17 16 15 15 14 14 13 13 11 10 11 11 12 11 11 11 11 12 12 12 12 12 12 12 11 12
8 9 12 14 15 17 20 21 21 21 22 22 22 22 22 23 23 23 23 23 22 23 23 22 21 20 20 20 20 19 19 19 20 19 19 17 17 16 16 16 16 15 14 14 14 13 12 11 11 12 12 12 12 12 13 13 12 12 13 13 13 12 13
4 8 11 13 12 13 14 16 17 19 20 20 21 22 23 23 23 23 24 23 22 23 23 22 21 20 21 20 20 20 19 19 20 20 19 18 17 17 17 17 16 16 15 15 14 15 15 14 12 12 12 12 13 13 13 13 12 13 14 13 13 13 12
4 4 9 11 12 12 12 13 15 16 17 17 18 20 21 21 22 22 23 23 22 23 23 23 21 21 22 21 20 20 19 19 20 20 20 19 18 17 17 17 16 16 15 15 15 15 16 15 14 13 12 12 12 12 13 13 12 12 13 14 14 13 12
9 3 4 8 11 13 13 14 14 14 16 17 17 17 17 18 20 21 22 23 24 24 24 25 23 22 22 21 20 20 19 19 19 20 20 19 19 18 17 17 17 16 15 15 15 15 15 15 15 15 15 13 12 12 13 13 14 13 13 14 15 15 14
8 7 4 4 9 13 14 15 16 15 16 19 20 18 17 18 20 21 24 26 26 26 26 26 24 23 23 22 21 20 19 18 18 19 19 19 20 20 19 18 17 17 16 16 16 16 16 15 15 16 16 15 14 14 14 15 16 15 14 14 15 15 15
7 6 5 3 7 11 12 14 16 17 18 20 22 21 18 18 20 22 24 27 28 27 27 27 25 24 25 24 22 20 19 18 18 18 19 20 20 20 20 19 18 18 18 17 16 16 17 16 16 16 17 17 16 17 16 16 17 16 15 15 16 16 15
7 6 4 2 3 6 9 12 15 17 18 19 21 22 19 18 20 21 21 24 27 27 27 27 25 25 26 27 24 21 19 18 18 18 19 19 20 21 21 20 19 19 18 18 17 16 16 17 16 17 18 19 18 19 19 18 18 17 16 16 17 17 17
6 6 5 3 2 4 5 7 11 15 17 16 16 19 20 19 20 21 21 22 25 26 26 27 27 26 27 27 25 23 21 19 17 18 19 19 20 20 21 20 20 19 19 19 18 18 17 17 17 18 19 20 19 19 20 19 19 18 17 17 16 16 16
6 5 6 5 3 2 2 2 4 8 13 14 14 14 17 19 18 17 18 20 22 23 24 25 27 27 27 27 26 25 23 21 19 19 19 19 20 20 21 21 20 20 20 19 19 19 18 17 17 18 20 21 19 18 19 19 19 19 19 18 17 16 16
7 6 7 7 5 2 0 1 1 3 8 11 13 13 16 19 18 14 14 17 18 20 21 22 24 25 26 26 25 24 23 22 22 22 20 19 19 19 20 20 21 21 21 20 20 20 20 19 18 18 19 20 20 18 18 19 19 19 19 18 17 17 16
9 9 9 9 9 7 5 5 3 1 4 7 10 11 13 16 16 13 13 14 15 17 18 19 19 20 21 22 23 23 23 23 24 24 22 22 21 20 19 19 20 20 20 20 20 20 20 19 19 18 18 18 19 18 18 18 18 18 18 18 17 17 17
14 14 14 14 14 12 11 10 8 4 2 5 8 8 9 13 14 13 11 11 13 15 16 18 19 17 17 19 20 22 23 25 26 26 26 25 25 24 23 22 21 19 19 20 20 20 20 20 19 18 18 18 18 18 18 18 17 17 17 17 16 16 16
17 17 17 17 16 15 13 12 11 9 6 3 3 5 6 11 15 17 17 17 19 19 17 17 18 17 17 17 18 20 22 25 26 27 27 26 25 25 26 26 23 20 18 19 19 19 19 19 19 19 18 18 18 18 18 18 17 18 20 19 17 16 15
18 18 19 18 16 16 16 15 14 12 11 10 6 1 3 6 11 16 19 20 23 23 20 18 17 17 18 18 18 18 21 24 25 25 25 25 25 25 25 26 24 21 20 19 19 20 20 20 20 20 19 18 17 18 18 18 18 21 22 21 18 17 17
18 18 19 19 16 16 17 18 17 15 13 12 10 8 3 1 5 10 13 15 16 17 17 17 17 18 19 20 19 19 21 23 24 24 25 26 26 26 26 25 24 22 21 20 20 21 20 20 20 20 20 19 18 18 18 18 19 23 23 21 19 19 18
18 18 18 18 18 17 16 18 18 17 15 13 12 12 9 5 2 4 7 9 11 12 13 13 15 17 19 20 20 20 21 22 22 24 26 26 26 27 28 28 26 24 23 22 22 22 20 19 20 20 19 19 19 19 18 18 21 23 22 21 20 20 19
16 16 16 17 18 17 14 15 18 18 17 15 14 14 13 10 6 3 2 3 5 7 8 9 10 12 14 17 18 19 21 22 22 23 24 25 26 28 28 29 29 27 25 23 22 22 20 20 20 20 20 21 20 19 17 19 22 22 21 22 22 22 22
15 15 15 16 18 17 15 15 16 18 20 18 17 16 15 14 12 8 5 3 1 1 2 3 4 7 9 12 15 17 19 21 22 23 24 25 26 27 28 29 28 27 27 25 23 24 24 23 23 22 22 23 23 21 18 18 19 20 22 24 23 24 25
14 13 14 15 15 16 16 15 14 17 21 22 20 19 17 17 16 14 11 9 7 5 3 1 2 3 5 6 9 13 15 16 18 19 21 22 23 24 26 28 28 28 28 26 24 24 25 24 24 23 23 23 23 23 22 20 18 18 22 25 24 25 26
11 12 13 13 13 15 15 15 14 14 18 21 22 20 18 17 18 18 18 17 15 13 11 9 9 8 7 6 3 3 7 10 12 15 18 20 22 22 24 27 28 28 28 25 24 24 24 24 23 22 22 22 22 22 23 22 22 22 23 26 26 25 26
10 11 12 11 12 13 14 15 15 14 17 21 22 21 19 19 20 21 22 21 20 19 18 17 16 14 12 12 11 9 5 2 4 6 9 14 17 19 25 29 29 28 25 22 21 22 23 23 21 17 18 19 19 21 22 21 22 23 23 25 26 25 26
9 10 11 11 11 12 13 15 16 15 17 19 20 20 20 20 20 21 22 21 21 23 24 22 20 18 15 14 13 12 11 8 6 5 2 3 5 7 13 17 19 20 20 18 18 16 16 18 17 14 14 15 15 16 17 17 19 20 21 22 23 23 24
9 9 10 10 10 11 12 14 15 15 17 18 17 17 18 20 22 23 24 25 25 26 26 24 22 20 18 16 15 13 12 11 9 8 6 4 4 2 3 4 6 9 10 11 12 11 11 13 12 10 10 10 10 11 13 14 16 17 17 19 20 20 21
9 9 9 9 10 10 11 13 14 14 16 17 16 15 16 18 21 23 25 26 26 26 24 22 21 20 19 18 17 15 14 14 12 10 8 7 6 5 2 1 3 6 7 5 4 5 6 9 10 9 9 10 10 12 13 15 16 16 16 17 19 20 20
9 9 9 10 11 11 11 13 14 14 15 16 15 14 14 16 20 21 22 24 24 23 22 20 20 19 19 19 18 17 16 15 14 13 12 10 7 6 7 6 6 7 8 7 5 4 4 6 8 10 11 12 13 14 17 18 18 18 18 19 21 21 21
9 10 10 10 10 11 11 13 14 15 15 16 16 15 14 15 17 18 20 21 21 20 19 19 19 19 19 19 19 18 17 15 14 14 13 13 12 10 10 10 9 8 8 7 7 5 3 3 5 8 10 11 13 15 17 18 17 17 17 18 19 19 19
10 10 11 12 12 12 12 13 14 15 16 16 15 15 15 15 16 16 17 19 18 16 17 17 17 18 18 19 19 19 18 16 15 14 13 13 13 12 12 12 11 9 8 6 5 4 5 7 9 10 9 9 10 12 13 14 13 13 13 13 13 13 13
10 10 11 13 15 15 15 15 15 15 17 17 16 14 14 15 15 15 17 17 15 14 14 14 14 15 16 17 18 18 17 17 16 15 14 13 13 13 13 12 11 11 10 7 5 4 5 6 7 7 7 8 9 9 9 9 8 7 6 6 6 7 6
10 10 10 12 14 14 13 14 14 15 16 16 16 15 15 14 14 14 15 15 13 12 12 13 13 13 14 15 16 16 17 17 17 16 14 13 13 12 13 13 12 12 11 10 9 8 7 6 5 3 2 3 4 4 4 4 3 3 2 2 2 2 3
10 10 10 10 12 11 11 11 13 13 14 15 15 15 15 14 14 13 13 13 11 10 11 13 12 13 13 13 14 14 15 16 16 16 16 15 14 12 10 10 11 11 11 11 11 12 11 9 8 8 8 7 6 5 4 3 3 2 0 1 2 3 4
11 10 9 9 10 10 10 10 10 10 11 12 13 13 13 14 13 12 11 11 10 10 11 12 12 12 12 12 12 13 14 14 15 16 16 16 15 14 13 13 11 10 10 10 11 12 11 10 9 9 10 9 8 7 5 3 2 3 4 4 5 5 6
10 9 9 8 8 8 8 9 9 9 9 10 11 11 12 12 12 11 11 10 10 10 10 11 12 11 11 11 11 11 12 12 13 14 14 14 14 14 14 14 13 13 12 12 11 10 9 8 7 6 6 6 4 3 2 2 4 6 6 7 7 7 7
9 8 8 7 7 6 6 7 8 8 8 10 10 10 10 10 10 10 10 9 9 9 10 11 11 10 9 9 9 9 9 9 9 10 11 11 11 13 13 13 13 13 13 12 12 10 8 7 5 3 2 1 1 2 2 3 5 6 7 8 8 8 8
7 7 7 6 5 5 4 5 6 7 7 8 9 9 9 9 8 8 8 8 9 9 9 9 9 8 8 8 8 9 9 7 7 9 9 8 9 10 11 11 11 11 11 12 12 11 10 8 7 6 5 4 4 3 3 3 3 4 5 6 7 7 7
7 7 7 6 5 4 3 4 5 5 6 6 7 8 8 8 8 9 8 8 8 8 7 8 8 8 8 8 8 9 9 8 8 8 7 7 7 7 7 7 8 8 9 10 10 11 10 9 9 8 8 8 7 7 6 5 5 4 4 4 5 5 4
Wind_Direction
207 206 209 207 206 206 205 205 207 206 206 210 214 216 214 210 210 210 216 223 221 215 214 209 207 208 207 208 207 207 208 210 210 210 211 210 208 210 211 210 212 211 210 216 220 222 226 228 224 225 234 239 239 238 236 236 239 241 245 244 243 249 248
201 207 209 209 208 207 207 207 207 206 210 216 220 218 212 210 216 221 224 226 222 217 217 214 210 209 209 209 209 208 208 208 211 211 211 214 214 212 210 208 211 214 213 212 218 223 228 233 232 229 233 238 239 243 241 238 241 243 244 246 246 250 250
192 207 211 212 211 210 209 209 208 208 213 219 220 216 212 215 223 228 230 228 222 217 218 217 216 214 213 213 213 212 211 209 211 212 211 214 217 215 213 212 211 214 218 218 221 225 229 234 235 233 232 232 232 239 243 240 243 245 245 246 246 248 251
176 195 210 211 209 211 209 209 210 211 215 220 219 215 217 225 230 231 232 231 224 218 217 217 217 218 217 217 217 217 216 214 213 215 213 214 217 215 215 218 216 214 218 222 223 223 223 226 232 234 232 230 228 231 238 238 238 243 245 246 247 248 252
157 185 213 213 203 205 207 209 211 213 215 217 218 218 219 227 230 229 233 233 225 220 219 217 214 217 220 221 220 220 221 221 219 217 215 215 216 216 216 218 219 218 219 221 222 224 225 222 224 230 231 233 234 234 237 238 238 243 247 247 247 248 251
358 191 216 222 215 210 207 210 213 216 218 215 217 220 218 221 224 225 229 232 226 220 219 217 212 215 221 220 220 221 222 225 225 222 219 217 217 218 218 218 218 220 222 222 221 225 230 227 221 223 226 230 233 233 234 236 237 240 245 248 247 245 243
347 328 234 225 230 228 220 219 219 220 224 222 220 220 218 218 219 219 224 230 231 228 225 222 215 215 221 221 219 221 222 225 228 228 224 221 221 221 221 221 221 220 221 223 222 221 226 228 224 222 223 223 225 227 228 232 233 233 239 247 248 247 245
344 336 307 251 243 244 237 236 236 233 234 233 229 223 220 220 222 225 231 236 239 239 236 231 220 216 220 222 221 222 223 224 227 229 228 224 223 224 224 224 224 222 221 222 223 223 222 224 224 224 223 222 223 225 226 231 237 238 238 243 248 249 249
354 351 332 286 257 255 248 246 247 244 243 245 242 234 224 222 227 231 235 238 240 242 242 238 227 220 225 228 228 227 226 225 226 228 229 227 226 226 226 226 226 225 225 223 223 225 224 223 222 223 225 223 223 227 228 232 239 241 239 242 244 246 248
7 11 7 351 300 282 263 251 247 241 238 242 246 241 229 222 228 233 233 237 242 245 245 243 234 227 231 235 235 231 227 226 228 229 229 229 228 227 227 227 226 226 226 224 224 223 225 225 222 223 227 226 226 230 233 234 238 240 239 241 244 246 249
14 17 27 34 1 324 291 258 246 237 230 230 237 239 233 229 234 238 239 241 245 246 244 243 240 236 237 239 238 235 232 228 228 230 231 231 230 230 229 229 228 228 226 225 224 222 223 225 224 225 229 230 229 233 237 237 239 241 239 238 241 244 246
28 27 37 49 42 2 330 260 240 232 226 221 222 227 228 228 232 242 249 250 250 248 246 245 245 243 242 242 240 238 237 235 231 230 230 231 232 232 232 231 229 228 228 227 225 223 222 223 224 225 229 232 230 231 236 239 240 241 240 237 237 240 242
46 46 44 55 59 44 94 166 143 207 217 214 211 212 215 216 219 227 241 249 251 249 247 249 251 249 246 245 244 240 239 242 243 239 233 231 232 232 233 234 234 232 231 230 228 226 223 223 224 223 226 231 231 229 233 238 240 242 242 239 236 237 241
54 65 61 64 65 63 69 72 73 165 219 216 212 211 209 207 208 213 226 242 251 248 242 242 246 249 249 248 246 241 237 240 243 242 239 236 236 237 236 235 235 234 233 232 231 229 228 226 225 224 224 226 229 229 230 234 237 239 241 241 238 238 241
48 61 62 61 62 63 63 65 71 92 166 214 223 222 210 205 209 221 234 247 258 259 251 242 239 241 246 246 245 242 240 240 241 244 246 246 245 246 245 241 237 234 234 233 232 231 230 228 227 227 225 224 226 228 229 231 233 234 236 238 238 238 242
43 50 55 55 55 58 57 59 66 75 85 114 208 226 226 221 223 232 242 248 254 259 260 253 247 244 245 243 242 244 245 244 244 248 249 247 247 249 250 247 243 239 237 237 235 232 230 228 227 226 226 225 225 226 228 229 230 233 236 237 235 236 240
44 42 50 51 50 53 55 58 61 61 62 65 68 95 231 235 230 233 239 246 252 255 256 254 251 248 245 242 239 242 247 247 247 250 249 245 245 247 249 249 247 244 241 239 238 234 229 228 229 228 228 228 228 228 231 231 231 237 242 242 237 235 237
53 45 49 49 46 48 50 53 55 54 53 52 52 57 69 183 213 224 231 236 242 247 251 251 250 247 246 245 243 243 248 249 248 249 249 246 245 244 246 248 249 248 247 244 241 238 232 227 227 228 229 231 233 233 234 234 237 244 249 245 237 235 237
63 54 52 50 47 46 45 48 51 54 54 51 49 50 51 59 116 194 215 225 229 233 239 244 246 246 245 246 246 246 249 250 250 250 249 247 245 244 245 248 250 252 254 250 241 238 237 232 228 230 232 233 235 239 240 241 242 246 250 244 236 235 238
66 61 56 51 50 48 46 47 49 52 54 52 51 51 51 52 57 69 124 198 219 225 234 238 243 249 248 246 247 247 249 252 253 252 252 250 248 247 247 249 250 250 254 252 240 232 234 236 231 229 231 232 232 233 238 244 245 245 246 242 234 233 236
64 62 58 52 50 50 49 48 48 50 53 51 51 52 53 56 56 53 60 73 104 192 247 254 258 269 267 258 251 248 250 251 250 252 255 254 252 251 251 252 251 249 248 246 237 229 229 235 236 233 233 236 237 236 238 246 248 247 247 245 239 237 239
60 60 59 54 52 52 51 50 49 52 55 54 53 53 55 62 65 65 69 72 71 71 61 20 329 312 304 280 254 244 244 248 252 257 260 260 259 258 255 253 251 248 243 239 236 233 233 239 244 243 241 244 247 249 250 252 252 249 249 250 248 247 248
62 62 63 60 57 55 56 58 56 55 58 59 59 59 63 73 78 77 78 78 75 74 75 70 65 56 46 44 39 235 232 239 251 261 265 266 267 266 262 257 251 244 239 237 237 236 234 237 242 246 248 249 251 255 258 257 255 254 254 254 253 253 256
68 67 67 65 62 59 61 65 65 63 64 64 64 66 72 82 87 85 81 78 76 75 75 71 69 66 64 61 59 62 76 132 220 245 260 265 269 269 264 256 246 237 235 235 236 236 235 236 239 245 249 250 251 255 259 260 259 259 259 259 258 256 259
72 71 70 68 66 64 65 67 66 67 68 64 61 65 72 80 84 83 78 74 73 72 70 67 65 64 64 63 61 63 64 66 79 96 124 242 259 270 261 243 222 214 220 222 221 225 227 227 230 234 240 245 248 251 256 259 259 258 257 258 259 258 259
75 71 71 71 70 67 67 66 63 63 67 64 57 58 67 75 78 77 76 74 72 71 69 67 67 67 68 67 63 62 62 61 66 77 81 83 84 55 294 247 186 176 192 205 208 206 200 199 205 215 226 234 242 247 250 251 253 255 255 253 254 257 260
78 75 73 74 75 71 67 65 62 62 68 70 64 57 62 71 74 74 74 73 71 69 68 68 69 70 72 73 70 66 64 63 65 71 77 84 93 101 111 157 124 122 131 159 196 212 205 200 205 218 228 230 235 245 251 253 256 258 259 258 259 261 263
86 83 78 73 74 74 71 69 66 65 69 74 73 65 62 67 71 71 71 71 69 67 68 68 68 69 69 70 71 70 68 65 64 65 71 76 85 99 111 116 121 124 134 151 164 176 203 208 214 230 243 248 251 256 260 263 265 266 265 266 266 266 267
98 93 86 78 75 75 74 72 70 70 72 75 77 76 70 68 69 69 69 69 68 67 67 68 68 69 68 66 66 66 65 64 62 59 61 65 68 74 80 84 94 115 134 151 157 161 193 229 237 245 253 259 263 264 265 268 270 270 269 269 268 268 269
103 97 92 90 89 85 81 77 72 71 73 74 76 78 76 73 71 70 69 69 68 68 69 69 69 70 69 67 66 64 62 62 63 61 61 62 63 67 70 68 71 81 96 120 145 174 214 235 248 255 257 259 261 262 263 265 268 270 269 267 267 268 270
105 99 94 92 91 88 84 81 76 72 71 72 72 73 76 75 74 73 72 69 65 66 69 69 70 71 70 67 67 65 62 62 64 64 65 67 66 66 68 65 62 62 66 78 101 132 175 201 220 236 241 243 247 252 256 256 257 261 258 254 258 264 267
107 100 96 94 90 85 82 79 77 73 70 70 69 67 69 71 71 72 74 69 61 61 67 67 65 67 68 66 67 67 66 65 65 63 62 64 64 62 62 60 57 58 62 69 76 82 92 108 120 133 160 204 223 233 243 240 222 213 214 219 249 273 281
112 108 104 99 92 88 85 79 76 73 70 69 68 65 63 65 66 68 74 74 68 66 70 68 63 63 66 66 65 67 66 65 66 65 63 63 62 60 62 62 58 57 61 66 69 71 72 75 81 88 95 100 107 116 125 143 148 139 115 350 353 344 340
118 113 106 99 93 89 86 80 75 72 68 66 65 63 61 62 63 65 71 77 80 78 75 72 70 68 69 68 66 67 66 64 64 65 65 67 67 66 68 71 71 69 67 67 69 71 73 77 84 92 99 101 100 102 102 88 48 14 348 339 337 331 324
122 117 111 107 102 94 88 81 74 68 64 63 62 59 58 59 60 63 67 71 78 81 78 73 70 67 66 64 60 59 60 58 60 66 66 65 67 70 71 70 71 71 72 72 74 75 78 86 97 104 106 104 98 91 71 9 340 325 316 315 315 310 305
130 127 123 118 111 100 91 82 72 64 59 59 57 53 52 52 52 57 62 66 71 78 81 78 71 62 60 61 59 59 57 48 50 64 71 69 68 70 73 73 70 68 68 68 69 71 73 74 81 90 87 53 13 358 339 322 313 305 303 306 311 314 316
137 135 136 134 123 105 89 80 73 66 60 57 53 47 44 41 38 41 47 53 59 64 69 75 74 65 55 51 54 60 61 50 44 55 65 73 77 75 75 74 70 67 66 65 64 65 68 68 68 70 67 59 53 49 28 1 341 327 320 318 320 321 321
148 148 150 149 143 125 101 84 76 70 67 62 54 47 42 35 27 24 23 24 32 40 44 51 58 60 53 44 45 51 50 46 47 48 47 55 67 73 73 69 62 58 60 65 67 67 66 65 65 68 71 71 70 67 57 46 33 13 357 345 339 334 329
Height
1518 1520 1523 1526 1528 1531 1534 1536 1538 1540 1543 1545 1546 1549 1551 1553 1555 1556 1557 1559 1560 1562 1563 1564 1565 1567 1568 1570 1571 1573 1575 1576 1578 1579 1580 1582 1583 1584 1585 1586 1587 1588 1589 1590 1591 1591 1592 1592 1593 1594 1594 1594 1594 1595 1596 1596 1597 1597 1598 1598 1599 1599 1600
1517 1520 1522 1524 1526 1529 1532 1534 1536 1538 1540 1542 1544 1547 1549 1551 1552 1554 1555 1557 1559 1560 1561 1563 1564 1565 1567 1568 1570 1571 1573 1575 1576 1578 1579 1580 1581 1582 1583 1584 1585 1586 1587 1589 1590 1590 1591 1591 1591 1592 1593 1593 1594 1594 1595 1595 1596 1596 1597 1597 1598 1598 1598
1519 1521 1522 1524 1525 1527 1530 1532 1534 1536 1538 1540 1542 1545 1547 1548 1550 1551 1553 1555 1557 1559 1561 1562 1563 1564 1566 1567 1568 1570 1571 1573 1574 1576 1577 1579 1580 1581 1582 1583 1584 1585 1586 1587 1588 1589 1589 1590 1590 1590 1591 1592 1593 1593 1593 1594 1595 1595 1596 1596 1597 1597 1597
1520 1521 1522 1524 1525 1526 1529 1531 1533 1535 1537 1539 1540 1543 1544 1546 1548 1550 1551 1553 1556 1557 1559 1560 1561 1563 1564 1566 1567 1568 1569 1571 1573 1574 1576 1578 1579 1580 1581 1581 1582 1583 1585 1585 1586 1587 1588 1589 1589 1589 1590 1590 1591 1592 1592 1593 1594 1594 1594 1595 1595 1596 1596
1520 1521 1522 1523 1524 1526 1528 1530 1532 1533 1536 1538 1539 1541 1543 1544 1546 1548 1550 1552 1554 1556 1557 1559 1561 1562 1563 1564 1566 1567 1568 1569 1571 1572 1574 1576 1577 1578 1579 1580 1581 1582 1583 1584 1585 1585 1586 1587 1588 1588 1588 1589 1590 1591 1591 1592 1592 1593 1593 1593 1594 1594 1595
1521 1521 1522 1523 1524 1526 1527 1529 1531 1532 1535 1537 1538 1540 1542 1544 1545 1547 1548 1550 1552 1554 1556 1558 1560 1561 1562 1563 1564 1566 1567 1568 1569 1571 1572 1574 1576 1577 1578 1579 1580 1581 1582 1582 1583 1584 1584 1584 1585 1587 1587 1588 1589 1590 1590 1591 1591 1592 1592 1592 1592 1593 1594
1521 1522 1522 1523 1524 1525 1527 1529 1530 1532 1534 1535 1537 1539 1541 1543 1544 1545 1547 1548 1550 1552 1553 1555 1557 1559 1560 1561 1563 1564 1565 1567 1568 1569 1570 1572 1574 1575 1576 1577 1578 1579 1580 1581 1581 1582 1582 1583 1583 1584 1585 1586 1588 1588 1589 1589 1590 1590 1591 1590 1591 1591 1592
1522 1522 1523 1523 1524 1525 1527 1528 1530 1532 1532 1533 1535 1537 1539 1541 1542 1543 1545 1546 1548 1549 1551 1553 1555 1557 1558 1559 1561 1562 1564 1566 1567 1568 1569 1570 1572 1573 1574 1575 1576 1577 1578 1579 1579 1580 1581 1582 1582 1583 1583 1584 1585 1586 1587 1587 1587 1588 1589 1589 1589 1589 1590
1523 1522 1522 1523 1524 1524 1525 1527 1529 1531 1531 1532 1534 1535 1537 1539 1540 1542 1543 1544 1545 1546 1548 1550 1553 1555 1556 1557 1559 1560 1562 1564 1565 1566 1567 1568 1569 1571 1572 1573 1574 1575 1575 1576 1578 1578 1579 1580 1581 1581 1581 1582 1583 1583 1584 1585 1585 1586 1587 1587 1587 1588 1588
1523 1523 1523 1523 1523 1523 1524 1525 1527 1529 1530 1532 1533 1534 1535 1537 1538 1540 1541 1542 1543 1544 1546 1548 1550 1552 1553 1554 1556 1558 1560 1561 1563 1564 1565 1566 1567 1568 1570 1571 1572 1572 1573 1574 1575 1576 1577 1577 1578 1579 1579 1580 1581 1581 1582 1582 1583 1584 1584 1585 1585 1586 1586
1524 1524 1523 1523 1523 1523 1523 1524 1526 1527 1529 1530 1532 1533 1534 1535 1536 1538 1540 1541 1541 1543 1544 1546 1547 1549 1550 1552 1554 1555 1557 1559 1560 1562 1562 1564 1565 1566 1567 1569 1570 1570 1571 1572 1573 1574 1575 1575 1576 1576 1577 1578 1579 1579 1580 1580 1581 1581 1582 1583 1583 1584 1584
1525 1524 1524 1524 1524 1524 1524 1525 1525 1526 1528 1529 1530 1531 1533 1534 1535 1536 1538 1540 1540 1542 1542 1543 1544 1546 1547 1549 1550 1552 1554 1556 1557 1559 1560 1561 1562 1564 1565 1566 1567 1568 1569 1569 1570 1571 1572 1573 1573 1574 1574 1575 1576 1577 1578 1578 1579 1579 1580 1581 1582 1582 1582
1526 1525 1525 1525 1524 1525 1525 1525 1526 1526 1527 1528 1529 1529 1530 1531 1532 1534 1536 1538 1539 1540 1540 1541 1542 1543 1544 1545 1547 1549 1551 1553 1554 1556 1557 1559 1560 1561 1563 1564 1565 1566 1567 1567 1568 1569 1570 1570 1571 1572 1572 1573 1574 1575 1576 1576 1577 1577 1577 1578 1579 1580 1580
1527 1526 1526 1525 1525 1525 1525 1526 1526 1527 1527 1528 1528 1528 1528 1529 1530 1532 1534 1535 1536 1537 1539 1540 1540 1540 1541 1542 1544 1546 1548 1550 1551 1552 1554 1556 1557 1558 1560 1562 1563 1564 1565 1566 1566 1567 1568 1569 1569 1570 1570 1571 1572 1573 1574 1574 1575 1575 1576 1576 1577 1578 1578
1529 1528 1527 1527 1526 1526 1526 1527 1527 1527 1528 1528 1528 1527 1527 1528 1530 1531 1532 1533 1535 1536 1538 1538 1538 1538 1539 1540 1541 1543 1545 1546 1548 1549 1551 1552 1554 1555 1557 1559 1561 1562 1563 1564 1564 1565 1566 1567 1568 1568 1568 1569 1570 1571 1571 1572 1573 1573 1574 1574 1575 1576 1577
1530 1530 1529 1528 1528 1527 1528 1528 1527 1528 1527 1527 1527 1526 1526 1526 1527 1528 1530 1531 1533 1535 1536 1537 1536 1535 1535 1537 1538 1540 1542 1543 1544 1546 1548 1549 1551 1552 1554 1556 1558 1560 1561 1562 1562 1563 1564 1565 1565 1566 1567 1567 1568 1568 1569 1570 1570 1571 1571 1572 1573 1574 1574
1532 1533 1531 1530 1529 1528 1528 1528 1528 1527 1527 1526 1526 1525 1524 1524 1524 1526 1528 1530 1532 1534 1534 1535 1534 1533 1533 1535 1536 1538 1539 1540 1541 1543 1545 1546 1548 1549 1551 1553 1556 1557 1558 1559 1560 1561 1561 1562 1563 1563 1565 1565 1566 1566 1567 1567 1567 1567 1568 1569 1570 1571 1572
1534 1535 1532 1531 1531 1530 1529 1528 1528 1527 1527 1526 1526 1525 1524 1525 1525 1526 1527 1529 1531 1532 1532 1532 1532 1532 1532 1533 1534 1535 1536 1537 1538 1540 1541 1543 1545 1546 1547 1550 1552 1554 1554 1556 1558 1558 1557 1559 1560 1561 1562 1563 1564 1564 1564 1565 1565 1564 1565 1567 1568 1569 1569
1534 1535 1534 1534 1533 1532 1531 1530 1529 1528 1527 1527 1526 1525 1525 1525 1526 1526 1527 1528 1529 1529 1530 1530 1530 1530 1531 1531 1532 1533 1533 1534 1535 1536 1538 1540 1541 1543 1544 1545 1547 1549 1550 1551 1553 1554 1554 1555 1556 1558 1559 1560 1561 1562 1563 1563 1562 1561 1562 1564 1565 1566 1567
1534 1535 1535 1535 1534 1534 1533 1532 1530 1529 1527 1527 1527 1526 1526 1526 1526 1526 1527 1527 1528 1528 1528 1529 1528 1528 1528 1529 1530 1530 1531 1531 1532 1534 1535 1537 1538 1539 1540 1541 1543 1544 1545 1547 1549 1551 1552 1552 1553 1554 1555 1556 1556 1557 1559 1560 1558 1558 1560 1561 1562 1563 1563
1536 1535 1535 1535 1535 1535 1534 1533 1532 1530 1529 1528 1527 1527 1526 1526 1526 1526 1526 1526 1526 1527 1527 1526 1526 1526 1526 1527 1527 1528 1528 1529 1530 1531 1533 1534 1536 1536 1537 1537 1539 1540 1541 1543 1545 1546 1547 1548 1550 1550 1551 1552 1553 1554 1555 1555 1554 1556 1558 1558 1559 1560 1561
1538 1537 1537 1536 1536 1536 1535 1535 1534 1533 1531 1530 1529 1528 1527 1526 1526 1526 1525 1525 1525 1525 1525 1525 1524 1524 1524 1524 1524 1524 1526 1527 1528 1529 1530 1531 1533 1534 1534 1534 1535 1536 1537 1538 1541 1542 1543 1545 1548 1549 1550 1550 1551 1552 1553 1552 1553 1554 1556 1556 1557 1558 1558
1540 1539 1538 1538 1538 1537 1536 1536 1536 1535 1534 1532 1531 1530 1528 1528 1528 1527 1526 1525 1525 1525 1525 1525 1524 1524 1524 1524 1523 1523 1523 1524 1525 1526 1527 1529 1529 1530 1531 1531 1532 1533 1534 1535 1536 1537 1538 1541 1544 1547 1548 1548 1549 1549 1549 1549 1550 1552 1553 1554 1554 1555 1555
1541 1540 1540 1540 1539 1538 1537 1537 1537 1536 1536 1534 1533 1532 1531 1530 1529 1528 1527 1527 1527 1527 1526 1526 1525 1525 1525 1524 1523 1522 1522 1523 1522 1523 1525 1526 1527 1528 1528 1527 1528 1529 1530 1531 1533 1534 1535 1537 1541 1544 1545 1545 1546 1546 1546 1546 1547 1548 1550 1551 1551 1552 1552
1542 1541 1541 1541 1540 1540 1539 1538 1538 1537 1536 1536 1535 1535 1533 1532 1531 1530 1529 1529 1529 1528 1528 1527 1527 1526 1526 1525 1524 1524 1523 1523 1523 1523 1524 1524 1525 1526 1527 1525 1523 1524 1527 1529 1530 1532 1533 1535 1537 1541 1543 1543 1542 1542 1543 1544 1544 1545 1546 1547 1548 1549 1549
1543 1543 1542 1542 1542 1541 1540 1539 1539 1538 1537 1536 1537 1537 1536 1534 1533 1531 1531 1531 1531 1530 1529 1529 1529 1529 1528 1527 1527 1526 1525 1525 1525 1524 1524 1523 1523 1525 1527 1526 1522 1522 1525 1528 1529 1530 1532 1532 1534 1538 1540 1540 1540 1540 1541 1542 1541 1542 1543 1543 1545 1546 1546
1544 1544 1544 1543 1542 1542 1541 1540 1540 1539 1538 1537 1538 1539 1538 1536 1535 1534 1533 1532 1532 1531 1532 1532 1531 1531 1530 1529 1528 1528 1527 1527 1526 1525 1525 1525 1525 1526 1527 1527 1524 1523 1526 1528 1529 1530 1530 1530 1532 1535 1537 1537 1537 1538 1539 1540 1539 1539 1540 1541 1542 1543 1543
1545 1545 1545 1544 1543 1543 1542 1541 1541 1540 1539 1539 1538 1539 1539 1538 1537 1536 1535 1534 1533 1533 1534 1534 1533 1532 1532 1531 1530 1529 1529 1529 1528 1528 1527 1527 1528 1528 1527 1527 1526 1525 1527 1528 1529 1528 1528 1529 1531 1533 1535 1535 1535 1536 1538 1538 1538 1537 1537 1538 1539 1540 1540
1545 1546 1546 1545 1545 1544 1543 1543 1542 1541 1541 1540 1539 1539 1539 1539 1538 1537 1537 1536 1535 1536 1535 1535 1535 1534 1533 1533 1532 1531 1531 1530 1530 1529 1529 1529 1529 1530 1529 1528 1528 1528 1528 1529 1528 1527 1526 1527 1529 1531 1533 1533 1534 1535 1536 1536 1536 1535 1535 1536 1536 1537 1537
1545 1546 1546 1545 1545 1545 1544 1544 1544 1543 1542 1541 1540 1540 1540 1539 1539 1539 1538 1538 1537 1537 1537 1536 1536 1536 1535 1535 1534 1533 1533 1532 1531 1531 1530 1530 1530 1530 1530 1530 1530 1529 1528 1528 1527 1525 1525 1526 1529 1530 1531 1532 1533 1534 1535 1534 1534 1533 1533 1534 1534 1534 1534
1546 1547 1546 1546 1545 1545 1545 1545 1545 1544 1543 1542 1542 1541 1540 1540 1540 1540 1540 1540 1540 1539 1538 1538 1538 1537 1537 1536 1536 1535 1534 1534 1533 1533 1532 1531 1531 1531 1531 1530 1530 1529 1528 1527 1526 1526 1525 1527 1528 1529 1531 1531 1532 1532 1533 1532 1532 1532 1532 1532 1533 1533 1533
1547 1547 1547 1547 1546 1546 1547 1547 1546 1545 1544 1544 1543 1543 1541 1541 1541 1541 1541 1541 1541 1541 1540 1540 1539 1538 1538 1538 1537 1537 1536 1535 1535 1534 1533 1533 1532 1532 1531 1531 1531 1531 1530 1529 1529 1528 1528 1528 1528 1529 1530 1530 1530 1531 1531 1531 1531 1531 1532 1532 1532 1532 1533
1547 1547 1547 1547 1547 1548 1548 1548 1547 1546 1546 1545 1545 1543 1543 1542 1542 1542 1542 1542 1543 1543 1541 1541 1541 1540 1540 1539 1539 1538 1538 1537 1536 1536 1535 1534 1534 1533 1533 1532 1533 1533 1533 1532 1531 1530 1530 1529 1529 1529 1530 1530 1530 1530 1531 1532 1532 1532 1532 1532 1532 1532 1532
1547 1547 1548 1548 1548 1549 1549 1549 1548 1548 1547 1546 1545 1545 1544 1544 1544 1544 1544 1543 1543 1543 1542 1542 1542 1541 1541 1541 1540 1540 1540 1539 1539 1538 1537 1536 1536 1535 1535 1534 1534 1535 1534 1534 1533 1532 1531 1531 1531 1531 1531 1531 1531 1532 1532 1532 1532 1532 1532 1532 1532 1531 1531
1548 1548 1549 1549 1549 1550 1549 1549 1549 1548 1548 1547 1546 1546 1546 1546 1546 1546 1545 1545 1544 1544 1543 1543 1543 1543 1542 1542 1542 1542 1541 1541 1540 1540 1539 1539 1538 1537 1537 1536 1536 1536 1535 1535 1534 1534 1533 1533 1533 1533 1533 1533 1533 1532 1532 1533 1532 1532 1532 1532 1531 1531 1530
1548 1549 1549 1549 1550 1550 1550 1550 1550 1549 1548 1548 1547 1547 1547 1547 1547 1547 1546 1546 1545 1545 1544 1544 1544 1544 1544 1543 1543 1543 1543 1543 1542 1541 1541 1541 1540 1539 1538 1538 1538 1537 1537 1536 1535 1535 1535 1534 1534 1534 1534 1533 1533 1533 1533 1533 1533 1532 1532 1531 1530 1530 1529
1549 1549 1549 1550 1550 1550 1551 1551 1550 1550 1549 1548 1548 1548 1548 1548 1548 1548 1547 1547 1546 1546 1546 1545 1545 1545 1545 1544 1544 1543 1543 1543 1543 1542 1541 1541 1541 1540 1540 1539 1539 1538 1538 1537 1537 1536 1536 1536 1535 1535 1534 1534 1534 1533 1533 1533 1532 1531 1531 1530 1529 1529 1528
1548 1549 1549 1550 1550 1551 1551 1551 1550 1550 1550 1549 1549 1549 1549 1549 1549 1548 1548 1548 1547 1547 1547 1546 1546 1546 1546 1545 1545 1544 1543 1543 1543 1542 1542 1542 1541 1541 1541 1541 1540 1539 1539 1538 1538 1537 1537 1536 1536 1536 1535 1535 1534 1534 1533 1533 1532 1531 1531 1530 1529 1529 1528